Regional Weather Roundup
Issued by NWS Newport/Morehead, NC

Current Version | Previous Version | Text Only | Print | Product List | Glossary On
Versions: 1 2 3 4 5 6 7 8 9 10 11 12 13 14 15 16 17 18 19 20 21 22 23 24 25 26 27 28 29 30 31 32 33 34 35 36 37 38 39 40 41 42 43 44 45 46 47 48 49 50
916
ASUS42 KMHX 011425
RWRMHX
WEATHER ROUNDUP FOR EASTERN NORTH CAROLINA
NATIONAL WEATHER SERVICE NEWPORT/MOREHEAD CITY NC
1000 AM EDT SUN MAY 01 2016

NOTE: "FAIR" INDICATES FEW OR NO CLOUDS BELOW 12,000 FEET
WITH NO SIGNIFICANT WEATHER AND/OR OBSTRUCTIONS TO VISIBILITY

NCZ015>017-031-032-045>047-102-103-011500-
NORTH COAST

CITY           SKY/WX    TMP DP  RH WIND       PRES   REMARKS
EDENTON        CLOUDY    65  62  90 SE3       30.14S
ELIZABETH CITY CLOUDY    62  56  80 E6        30.13F
KITTY HAWK     CLOUDY    66  60  80 SE3       30.12S
MANTEO         NOT AVBL

$$

NCZ045>047-081-094-103-104-011500-
CENTRAL COAST

CITY           SKY/WX    TMP DP  RH WIND       PRES   REMARKS
FRISCO         PTSUNNY   70  62  76 S7        30.14R
SWANQUARTER    NOT AVBL

$$

NCZ095-097-098-100-101-011500-
SOUTHERN COAST

CITY           SKY/WX    TMP DP  RH WIND       PRES   REMARKS
BEAUFORT       PTSUNNY   72  65  78 S9        30.13R
CEDAR ISLAND   NOT AVBL
JACKSONVILLE     N/A     69  63  81 CALM      30.13R
PINEY ISLAND   NOT AVBL
WILMINGTON     PTSUNNY   74  64  71 S13G20    30.12R


$$

NCZ011>013-027>030-043-044-078>080-089-090>093-098-011500-
COASTAL PLAIN

CITY           SKY/WX    TMP DP  RH WIND       PRES   REMARKS
AHOSKIE        MOSUNNY   59  55  87 SE7       30.11F
CLINTON        CLOUDY    70  66  86 CALM      30.12R
ELIZABETHTOWN  CLOUDY    72  64  78 S9        30.11R
GOLDSBORO      CLOUDY    68  68 100 E5        30.09F
GREENVILLE     CLOUDY    64  61  88 S3        30.13F
HAVELOCK       PTSUNNY   71  65  81 S5        30.13S
KENANSVILLE    PTSUNNY   69  63  81 CALM      30.12F
KINSTON        CLOUDY    66  61  82 SE6       30.13S
NEW BERN       CLOUDY    70  63  78 SE3       30.13F
RICHLANDS      CLOUDY    69  65  86 SE5       30.12S
ROCKY MOUNT    CLOUDY    62  58  86 SE7       30.11F
WASHINGTON     MOSUNNY   67  61  80 SE6       30.12F
WHITEVILLE     CLOUDY    73  64  74 SE7G16    30.11R

$$

AMZ130-135-150-152-154-156-158-170-250-252-270-ANZ085-086-088-633-658-670-011500-
MARINE OBSERVATIONS

STATION/POSITION TIME  TEMP    WIND        PRES    WAVE   SWELL
                       AIR SEA DIR/SP/G            HT/PER HT/PER
                 (UTC) (F)     (DEG/KT/KT) (MB)    (FT/S) (FT/S)
CHESAPEAKE LIGHT 1400   55      90/ 13/ 14 1021.3
64 E VA BEACH    1350   56 53   80/  8/ 10 1020.2    5/10   5/10
DUCK             1400   59 66  120/  5/  6 1019.9
2 E DUCK         1311      59                N/A     4/11   2/11
OREGON INLET     1400   66 60  110/  6/  7 1020.3
13E OREGON INLT  1400      58                N/A     5/10   5/10
HATTERAS CG      1400   69 66  160/  5/  8 1020.3
DIAMOND BUOY     1350   73 73  180/ 12/ 14 1020.3    4/10   3/10
CAPE LOOKOUT     1400   69     160/  7/  8 1019.8
BEAUFORT LAB     1400   70 66  180/  6/  7 1019.2
30 SE NEW RVR IN 1325      68                N/A     4/ 9   2/11
27 SE WRIGHTSVLE 1408   74 71  190/ 12/ 16 1019.9
5 SE WRIGHTSVLE  1408   70 68  220/  4/  6 1020.9
225 S CAPE HAT   1350   72     110/ 12/ 14 1020.7    4/ 9   3/ 9
41 SE CHARLESTON 1350   75 72  170/ 12/ 14 1018.6    5/ 6   3/ 6

$$




USA.gov is the U.S. government's official web portal to all federal, state and local government web resources and services.